Theta_e
299 298 297 297 296 296 296 296 297 298 298 298 299 299 298 297 296 296 295 294 294 294
299 299 299 298 297 296 295 297 297 297 297 297 297 297 296 295 295 295 295 294 294 293
299 299 298 297 296 296 296 296 295 295 295 295 295 294 293 293 293 293 293 294 292 292
295 296 295 295 294 294 293 294 294 294 293 293 292 292 291 291 291 290 290 290 290 290
294 293 293 293 293 293 293 293 293 293 293 293 293 292 291 290 290 289 289 289 289 289
290 291 290 291 291 292 291 291 291 291 290 291 292 291 291 291 290 290 289 289 289 289
287 287 287 287 288 288 288 287 287 287 287 287 288 289 290 290 288 287 288 288 288 287
285 285 285 285 285 285 285 285 285 285 285 285 287 289 288 288 288 287 287 287 287 288
284 283 283 283 283 283 283 283 283 283 283 283 286 291 292 290 286 287 287 286 286 287
283 283 283 283 283 282 282 282 282 282 282 282 283 290 291 291 286 285 284 284 285 285
283 283 283 282 282 281 281 281 281 281 281 281 282 289 290 290 284 283 283 283 283 283
283 282 282 281 281 281 280 280 280 281 281 280 281 287 289 288 283 282 282 283 283 283
283 282 281 280 280 280 280 280 281 281 281 283 280 285 288 287 282 281 281 281 281 286
282 282 281 280 280 280 279 279 279 279 279 279 280 281 287 288 284 281 281 281 281 282
Wind_Speed
6 4 3 4 3 3 2 1 1 3 2 2 1 1 1 0 1 1 1 2 2 1
5 5 4 4 3 2 2 0 1 2 2 0 0 1 1 1 2 1 1 2 2 2
5 5 5 5 5 5 3 3 4 3 3 3 2 2 1 2 2 2 2 2 3 2
6 6 6 6 6 6 6 6 6 6 6 5 5 5 4 4 4 4 4 4 4 5
8 8 9 8 7 6 7 7 6 6 7 6 6 6 6 6 6 6 6 6 6 5
8 10 9 8 7 7 7 7 7 7 7 6 6 6 6 5 5 5 5 4 5 5
9 8 8 7 7 7 6 7 6 6 6 6 5 5 5 5 5 5 4 4 4 5
7 7 7 7 7 6 7 6 6 6 6 6 4 3 5 4 4 5 6 5 5 4
7 7 7 6 6 6 6 6 6 6 5 6 3 10 11 8 4 5 5 6 6 5
6 7 6 6 6 6 5 4 5 5 5 5 5 11 13 13 3 5 5 6 5 6
6 6 6 6 5 4 3 4 3 4 5 5 5 13 14 14 5 5 6 6 6 6
6 6 5 5 4 3 3 3 3 3 5 5 6 12 13 10 5 5 6 6 6 6
5 5 5 4 3 2 2 3 3 5 4 7 5 10 12 11 3 4 4 6 6 11
5 5 4 3 2 2 3 4 4 4 5 5 5 6 12 14 6 4 4 4 4 4
Wind_Direction
145 146 159 163 152 166 182 198 194 194 189 207 220 180 171 177 243 212 249 262 242 271
144 148 154 142 136 145 128 130 129 142 154 118 280 257 202 270 295 321 288 282 275 262
133 123 115 108 94 82 74 71 87 86 66 47 35 30 51 341 341 333 317 299 309 289
94 95 89 87 82 82 76 72 68 66 65 54 46 32 38 16 11 9 356 357 357 337
89 85 83 78 72 68 70 57 60 57 56 47 43 40 41 34 28 30 20 7 3 353
79 82 79 75 70 66 68 60 53 54 50 43 47 41 37 41 29 20 17 2 355 336
83 84 81 77 70 69 64 65 57 51 48 37 32 38 27 27 18 4 353 341 338 329
89 84 82 75 71 67 60 59 54 45 34 25 19 9 2 2 347 333 323 318 313 306
88 82 78 74 70 64 56 50 46 35 25 11 355 348 351 349 328 314 299 297 298 292
89 84 77 74 65 55 49 39 31 14 11 351 333 342 342 336 318 313 308 299 294 303
89 86 77 68 57 42 40 25 8 355 352 340 324 341 339 334 330 316 306 305 300 289
92 83 70 59 43 31 27 0 353 330 335 334 313 328 333 332 332 328 313 301 295 291
89 81 72 61 34 19 5 333 341 332 316 308 313 323 332 331 314 299 291 290 288 301
82 81 74 53 41 7 1 352 329 316 310 316 319 312 326 325 315 284 279 278 289 282